| time (UTC) | temp F | wind direction | speed MPH | gust MPH | rain 1hr in | rain 24hr in | rain mn in | humidity % | barometer mb |
| 20260901143048 | 72 | 94 | 0.0 | 1.0 | 0.00 | 0.04 | 0.04 | 95 | 1044.8 |
| 20260901142049 | 71 | 103 | 1.0 | 1.0 | 0.00 | 0.04 | 0.04 | 95 | 1045.0 |
| 20260901141044 | 71 | 95 | 1.0 | 1.0 | 0.00 | 0.04 | 0.04 | 95 | 1044.7 |
| 20260901140043 | 71 | 80 | 2.0 | 3.0 | 0.00 | 0.04 | 0.04 | 95 | 1044.9 |
| 20260901135038 | 70 | 96 | 1.0 | 1.0 | 0.00 | 0.04 | 0.04 | 95 | 1045.0 |
| 20260901134034 | 70 | 103 | 1.0 | 1.0 | 0.07 | 0.04 | 0.04 | 95 | 1044.9 |
| 20260901133032 | 70 | 84 | 0.0 | 0.0 | 0.00 | 0.03 | 0.03 | 95 | 1045.3 |
| 20260901132032 | 70 | 101 | 0.0 | 0.0 | 0.00 | 0.03 | 0.03 | 95 | 1045.1 |
| 20260901131028 | 69 | 103 | 0.0 | 0.0 | 0.00 | 0.03 | 0.03 | 95 | 1045.1 |
| 20260901130026 | 69 | 102 | 1.0 | 2.0 | 0.00 | 0.03 | 0.03 | 95 | 1045.0 |
| 20260901125026 | 69 | 99 | 1.0 | 1.0 | 0.00 | 0.03 | 0.03 | 95 | 1045.0 |
| 20260901124026 | 68 | 95 | 0.0 | 0.0 | 0.00 | 0.03 | 0.03 | 95 | 1045.2 |
| 20260901123021 | 68 | 85 | 1.0 | 1.0 | 0.00 | 0.03 | 0.03 | 95 | 1045.2 |
| 20260901122019 | 67 | 90 | 0.0 | 1.0 | 0.00 | 0.03 | 0.03 | 95 | 1045.4 |
| 20260901121015 | 67 | 91 | 1.0 | 1.0 | 0.00 | 0.03 | 0.03 | 95 | 1045.3 |
| 20260901120011 | 67 | 91 | 0.0 | 0.0 | 0.00 | 0.03 | 0.03 | 95 | 1045.4 |
| 20260901115009 | 66 | 98 | 0.0 | 0.0 | 0.00 | 0.03 | 0.03 | 95 | 1045.4 |
| 20260901114008 | 66 | 98 | 0.0 | 0.0 | 0.00 | 0.03 | 0.03 | 95 | 1045.5 |
| 20260901113003 | 65 | 89 | 0.0 | 1.0 | 0.00 | 0.03 | 0.03 | 95 | 1045.1 |
| 20260901111959 | 65 | 83 | 1.0 | 1.0 | 0.00 | 0.03 | 0.03 | 95 | 1045.4 |
| 20260901110955 | 65 | 85 | 1.0 | 1.0 | 0.00 | 0.03 | 0.03 | 95 | 1045.4 |
| 20260901105953 | 65 | 87 | 0.0 | 0.0 | 0.00 | 0.03 | 0.03 | 95 | 1045.2 |
| 20260901104949 | 65 | 100 | 0.0 | 0.0 | 0.00 | 0.03 | 0.03 | 95 | 1045.1 |
| 20260901103946 | 65 | 100 | 0.0 | 0.0 | 0.00 | 0.03 | 0.03 | 95 | 1045.2 |
| 20260901102941 | 65 | 98 | 1.0 | 1.0 | 0.00 | 0.03 | 0.03 | 95 | 1045.1 |
| 20260901101936 | 65 | 96 | 1.0 | 1.0 | 0.00 | 0.03 | 0.03 | 95 | 1045.2 |
| 20260901100931 | 65 | 94 | 0.0 | 0.0 | 0.00 | 0.03 | 0.03 | 95 | 1045.0 |
| 20260901095931 | 66 | 82 | 1.0 | 1.0 | 0.05 | 0.03 | 0.03 | 95 | 1045.1 |
| 20260901094929 | 65 | 96 | 1.0 | 1.0 | 0.12 | 0.02 | 0.02 | 95 | 1045.2 |
| 20260901093929 | 65 | 87 | 0.0 | 0.0 | 0.00 | 0.00 | 0.00 | 95 | 1045.6 |
| 20260901092924 | 65 | 87 | 0.0 | 0.0 | 0.00 | 0.00 | 0.00 | 95 | 1045.7 |
| 20260901091922 | 65 | 87 | 0.0 | 0.0 | 0.00 | 0.00 | 0.00 | 95 | 1045.6 |
| 20260901090917 | 65 | 87 | 0.0 | 0.0 | 0.00 | 0.00 | 0.00 | 95 | 1045.6 |
| 20260901085912 | 65 | 87 | 0.0 | 0.0 | 0.00 | 0.00 | 0.00 | 95 | 1045.5 |
| 20260901084910 | 65 | 87 | 0.0 | 0.0 | 0.00 | 0.00 | 0.00 | 95 | 1045.4 |
| 20260901083907 | 65 | 87 | 0.0 | 0.0 | 0.00 | 0.00 | 0.00 | 95 | 1045.4 |
| 20260901082905 | 65 | 87 | 0.0 | 0.0 | 0.00 | 0.00 | 0.00 | 95 | 1045.6 |
| 20260901081902 | 65 | 87 | 0.0 | 0.0 | 0.00 | 0.00 | 0.00 | 95 | 1045.8 |
| 20260901080857 | 65 | 87 | 0.0 | 0.0 | 0.00 | 0.00 | 0.00 | 95 | 1045.7 |
| 20260901075851 | 66 | 87 | 0.0 | 0.0 | 0.00 | 0.00 | 0.00 | 95 | 1045.7 |
| 20260901074847 | 66 | 87 | 0.0 | 0.0 | 0.00 | 0.00 | 0.00 | 95 | 1046.2 |
| 20260901073843 | 65 | 87 | 0.0 | 0.0 | 0.00 | 0.00 | 0.00 | 95 | 1045.9 |